FW2167 Weather Reports


time (UTC)temp
C
wind
direction
speed
KPH
gust
KPH
rain 1hr
cm
rain 24hr
cm
rain mn
cm
humidity
%
barometer
mb
20260509234204 17 261 12.9 22.5 0.00 0.05 0.00 82 1004.1
20260509233705 17 272 14.5 24.1 0.00 0.05 0.00 81 1003.9
20260509232704 17 261 14.5 25.7 0.00 0.05 0.00 81 1004.1
20260509232204 17 268 19.3 27.4 0.00 0.05 0.00 81 1004.0
20260509231704 17 273 16.1 29.0 0.00 0.05 0.00 83 1004.2
20260509230204 16 259 19.3 38.6 0.00 0.05 0.00 82 1004.2
20260509225704 16 244 22.5 45.1 0.00 0.05 0.00 82 1004.2
20260509225204 16 270 20.9 40.2 0.00 0.05 0.00 84 1004.4
20260509224703 16 261 19.3 35.4 0.00 0.05 0.00 86 1004.5
20260509224205 15 263 22.5 38.6 0.00 0.05 0.00 88 1004.4
20260509223705 15 264 19.3 33.8 0.00 0.05 0.00 90 1004.5
20260509222704 15 265 20.9 45.1 0.00 0.05 0.00 86 1004.4
20260509222205 16 238 20.9 37.0 0.00 0.05 0.00 82 1004.5
20260509221704 17 258 16.1 29.0 0.00 0.08 0.00 84 1004.4
20260509220704 16 268 14.5 32.2 0.00 0.08 0.00 84 1004.4
20260509215704 15 274 16.1 33.8 0.00 0.08 0.00 87 1004.5
20260509215205 15 284 14.5 25.7 0.00 0.08 0.00 88 1004.5
20260509214703 15 290 12.9 24.1 0.00 0.08 0.00 89 1004.5
20260509213704 15 283 16.1 24.1 0.00 0.08 0.00 89 1004.5
20260509213204 15 274 14.5 25.7 0.00 0.08 0.00 89 1004.5
20260509212205 13 265 20.9 32.2 0.00 0.08 0.00 91 1004.4
20260509211704 14 277 14.5 24.1 0.00 0.08 0.00 92 1004.6
20260509211204 14 269 11.3 24.1 0.00 0.08 0.00 93 1004.5
20260509210704 13 290 12.9 22.5 0.00 0.08 0.00 94 1004.2
20260509210204 13 276 11.3 19.3 0.00 0.08 0.00 96 1004.4
20260509205204 13 281 11.3 19.3 0.00 0.08 0.00 97 1004.3
20260509204704 12 267 11.3 19.3 0.00 0.08 0.00 98 1004.3
20260509203704 12 222 3.2 9.7 0.00 0.08 0.00 98 1004.2
20260509203204 12 243 6.4 11.3 0.00 0.08 0.00 98 1004.3
20260509202204 11 290 8.0 16.1 0.00 0.08 0.00 98 1004.3
20260509201705 11 290 9.7 16.1 0.00 0.08 0.00 98 1004.2
20260509201204 11 288 8.0 12.9 0.00 0.08 0.00 98 1004.3
20260509200704 11 271 8.0 11.3 0.00 0.08 0.00 98 1004.1
20260509200205 11 242 3.2 11.3 0.00 0.08 0.00 98 1004.0
20260509195704 10 212 4.8 8.0 0.00 0.08 0.00 98 1004.3
20260509195204 10 262 3.2 4.8 0.00 0.08 0.00 98 1004.1
20260509194704 10 285 1.6 4.8 0.00 0.08 0.00 98 1004.0
20260509194205 10 326 1.6 3.2 0.00 0.08 0.00 98 1004.0
20260509193705 9 269 0.0 3.2 0.00 0.08 0.00 98 1003.9
20260509193204 9 236 4.8 4.8 0.00 0.08 0.00 98 1004.1
20260509192705 9 256 3.2 8.0 0.00 0.08 0.00 98 1003.8
20260509192204 9 288 4.8 8.0 0.00 0.08 0.00 98 1003.6
20260509191704 9 298 3.2 8.0 0.00 0.08 0.00 98 1003.9
20260509191204 8 324 3.2 4.8 0.00 0.08 0.00 98 1003.7
20260509190704 9 359 1.6 3.2 0.00 0.08 0.00 98 1003.7
20260509185704 9 284 3.2 4.8 0.00 0.08 0.00 98 1003.6
20260509185204 9 332 1.6 4.8 0.00 0.08 0.00 98 1003.7
20260509184704 9 330 3.2 4.8 0.00 0.08 0.00 98 1003.5
20260509184205 10 321 3.2 4.8 0.00 0.08 0.00 98 1003.5
20260509183703 10 271 3.2 8.0 0.00 0.08 0.00 98 1003.6
20260509183204 10 263 4.8 8.0 0.00 0.08 0.00 99 1003.6
20260509182704 9 265 4.8 11.3 0.00 0.08 0.00 98 1003.7
20260509182204 9 270 9.7 12.9 0.00 0.08 0.00 99 1003.4
20260509181704 8 270 8.0 9.7 0.00 0.08 0.00 98 1003.5
20260509180704 8 261 4.8 9.7 0.00 0.08 0.00 98 1003.5
20260509175704 9 293 4.8 8.0 0.00 0.08 0.00 98 1003.6
20260509175204 9 312 4.8 8.0 0.00 0.08 0.00 98 1003.6
20260509174705 9 263 8.0 12.9 0.00 0.08 0.00 98 1003.6
20260509174205 8 243 3.2 4.8 0.00 0.08 0.00 98 1003.6
20260509173703 8 228 4.8 9.7 0.00 0.08 0.00 98 1003.5
20260509173204 7 220 3.2 8.0 0.00 0.08 0.00 98 1003.6
20260509172204 7 140 0.0 1.6 0.00 0.08 0.00 98 1003.3
20260509171704 7 42 1.6 1.6 0.00 0.08 0.00 98 1003.4
20260509171204 7 306 0.0 0.0 0.00 0.08 0.00 98 1003.3
20260509170704 7 187 1.6 1.6 0.00 0.08 0.00 98 1003.4
20260509170204 7 125 0.0 1.6 0.00 0.08 0.00 98 1003.3
20260509164704 7 167 1.6 1.6 0.00 0.08 0.00 98 1003.2
20260509164204 8 9 1.6 3.2 0.00 0.08 0.00 98 1003.3
20260509163705 8 9 1.6 3.2 0.00 0.08 0.00 98 1003.1
20260509163204 8 356 0.0 1.6 0.00 0.08 0.00 98 1003.3
20260509162704 8 324 0.0 1.6 0.00 0.08 0.00 98 1003.3
20260509162204 8 219 0.0 1.6 0.00 0.08 0.00 98 1003.3
20260509161704 8 216 0.0 1.6 0.00 0.08 0.00 98 1003.2
20260509161204 8 47 0.0 0.0 0.00 0.08 0.00 98 1003.3
20260509160704 8 295 0.0 1.6 0.00 0.08 0.00 98 1003.3
20260509160204 8 262 1.6 3.2 0.00 0.08 0.00 98 1003.2
20260509155704 8 198 1.6 3.2 0.00 0.08 0.00 98 1003.1
20260509155204 8 227 3.2 4.8 0.00 0.08 0.00 98 1003.4
20260509154705 8 208 4.8 4.8 0.00 0.08 0.00 98 1003.4
20260509154205 8 201 1.6 3.2 0.00 0.08 0.00 97 1003.2
20260509153704 8 242 1.6 3.2 0.00 0.08 0.00 97 1003.3
20260509153205 8 254 0.0 3.2 0.00 0.08 0.00 97 1003.5
20260509152704 8 265 1.6 4.8 0.00 0.08 0.00 97 1003.5
20260509151704 9 199 0.0 1.6 0.00 0.10 0.00 97 1003.7
20260509151204 9 136 0.0 1.6 0.00 0.10 0.00 97 1003.6
20260509150705 9 101 0.0 1.6 0.00 0.10 0.00 97 1003.7
20260509150204 9 187 0.0 3.2 0.00 0.10 0.00 97 1003.6
20260509145205 9 187 0.0 0.0 0.00 0.10 0.00 97 1003.8
20260509144705 9 179 0.0 1.6 0.00 0.10 0.00 97 1003.8
20260509144204 9 246 1.6 3.2 0.00 0.10 0.00 97 1003.5
20260509143705 9 246 3.2 4.8 0.00 0.10 0.00 97 1003.6
20260509142204 9 215 1.6 1.6 0.00 0.10 0.00 96 1003.7
20260509141704 10 253 0.0 3.2 0.00 0.10 0.00 96 1003.7
20260509141204 10 268 1.6 3.2 0.00 0.10 0.00 96 1003.7
20260509140705 10 57 1.6 3.2 0.00 0.13 0.00 96 1003.8
20260509140205 10 74 1.6 3.2 0.00 0.20 0.00 96 1003.8
20260509135704 11 112 0.0 3.2 0.00 0.20 0.00 96 1003.7
20260509134704 11 16 1.6 3.2 0.00 0.20 0.00 96 1004.0
20260509134204 11 56 3.2 3.2 0.00 0.20 0.00 96 1003.8
20260509133704 11 181 0.0 1.6 0.00 0.20 0.00 96 1003.9
20260509132706 11 289 1.6 3.2 0.00 0.20 0.00 96 1003.7
20260509132205 11 278 0.0 3.2 0.00 0.20 0.00 96 1003.8
20260509130704 12 250 4.8 8.0 0.00 0.23 0.00 96 1003.7
20260509125705 12 248 4.8 11.3 0.00 0.23 0.00 96 1003.8
20260509125204 12 253 8.0 11.3 0.00 0.23 0.00 96 1004.0
20260509124705 12 239 3.2 8.0 0.00 0.23 0.00 96 1003.9
20260509124204 12 237 3.2 4.8 0.00 0.23 0.00 96 1003.8
20260509123205 12 262 0.0 3.2 0.00 0.33 0.00 96 1003.8
20260509122704 13 257 1.6 8.0 0.00 0.33 0.00 96 1004.0
20260509122204 13 243 3.2 9.7 0.00 0.33 0.00 96 1004.0
20260509121705 13 267 4.8 14.5 0.00 0.33 0.00 96 1003.9
20260509121204 13 271 9.7 16.1 0.00 0.33 0.00 96 1004.1
20260509120705 13 277 9.7 20.9 0.00 0.33 0.00 96 1004.1
20260509120204 13 275 8.0 16.1 0.00 0.33 0.00 96 1004.1
20260509115705 13 268 8.0 14.5 0.00 0.33 0.33 96 1004.1
20260509115204 13 261 9.7 16.1 0.00 0.33 0.33 96 1004.3
20260509114705 13 251 9.7 19.3 0.00 0.33 0.33 96 1004.1
20260509114204 13 268 9.7 16.1 0.00 0.33 0.33 96 1004.2
20260509113705 13 270 8.0 19.3 0.00 0.33 0.33 96 1004.0
20260509113205 13 275 6.4 14.5 0.00 0.33 0.33 96 1004.3
20260509112705 13 281 4.8 11.3 0.00 0.33 0.33 96 1004.2
20260509112205 12 285 4.8 8.0 0.00 0.33 0.33 96 1004.0
20260509111204 12 248 3.2 4.8 0.00 0.33 0.33 95 1004.0
20260509110204 12 157 3.2 3.2 0.00 0.33 0.33 95 1003.8
20260509105704 12 141 1.6 3.2 0.00 0.33 0.33 94 1003.7
20260509105208 12 47 0.0 4.8 0.00 0.33 0.33 94 1004.1
20260509104704 12 224 3.2 4.8 0.00 0.33 0.33 94 1003.9
20260509104204 13 232 3.2 4.8 0.00 0.36 0.33 94 1004.0
20260509103204 13 283 4.8 9.7 0.00 0.38 0.33 95 1004.0
20260509102704 13 275 4.8 9.7 0.00 0.41 0.33 94 1004.2
20260509102204 13 254 4.8 8.0 0.00 0.41 0.33 95 1004.4
20260509101204 13 272 3.2 4.8 0.00 0.43 0.33 94 1004.4
20260509100704 13 259 3.2 4.8 0.00 0.46 0.33 94 1004.6
20260509100205 13 256 3.2 4.8 0.00 0.48 0.33 94 1004.2
20260509095204 13 264 1.6 4.8 0.00 0.53 0.33 94 1004.5
20260509094705 13 282 3.2 4.8 0.00 0.56 0.33 95 1004.6
20260509094204 13 1 3.2 8.0 0.00 0.56 0.33 95 1004.4
20260509093704 13 336 3.2 9.7 0.00 0.56 0.33 95 1004.5
20260509093205 13 20 3.2 8.0 0.00 0.56 0.33 95 1004.5
20260509092205 13 342 3.2 8.0 0.00 0.56 0.33 95 1004.3
20260509091204 13 299 1.6 3.2 0.00 0.56 0.33 94 1004.2
20260509090704 13 273 3.2 4.8 0.00 0.56 0.33 94 1004.3
20260509090204 14 288 3.2 4.8 0.00 0.56 0.33 94 1004.2
20260509085704 14 275 1.6 3.2 0.00 0.56 0.33 94 1004.3
20260509085204 14 264 1.6 3.2 0.00 0.56 0.33 94 1004.1
20260509084704 14 259 1.6 3.2 0.03 0.56 0.33 94 1004.2
20260509083704 13 278 1.6 3.2 0.03 0.56 0.33 94 1004.1
20260509081704 14 236 3.2 8.0 0.03 0.58 0.33 93 1004.2
20260509081204 14 241 4.8 8.0 0.03 0.58 0.33 93 1004.3
20260509080204 14 289 4.8 11.3 0.03 0.58 0.33 93 1004.1
20260509075704 14 279 6.4 11.3 0.00 0.56 0.33 93 1004.3
20260509075204 14 299 6.4 12.9 0.00 0.58 0.33 93 1004.1
20260509074704 14 274 9.7 14.5 0.00 0.58 0.30 93 1004.2
20260509073704 14 283 4.8 9.7 0.00 0.58 0.30 93 1004.2
20260509073204 14 295 4.8 11.3 0.00 0.58 0.30 92 1004.2
20260509072704 14 274 4.8 11.3 0.00 0.58 0.30 92 1004.1
20260509072204 14 277 6.4 11.3 0.00 0.58 0.30 92 1004.1
20260509071704 14 263 9.7 12.9 0.00 0.61 0.30 93 1004.1
20260509071204 14 265 9.7 14.5 0.00 0.61 0.30 92 1004.2
20260509070704 14 219 8.0 11.3 0.00 0.61 0.30 91 1004.0
20260509070205 15 218 8.0 11.3 0.00 0.61 0.30 91 1004.0
20260509065705 14 277 3.2 4.8 0.00 0.61 0.30 92 1003.9
20260509065204 14 324 3.2 8.0 0.00 0.61 0.30 92 1004.0
20260509064704 13 15 1.6 8.0 0.00 0.61 0.30 92 1004.2
20260509064204 13 224 1.6 3.2 0.00 0.61 0.30 91 1003.8
20260509063704 14 238 3.2 3.2 0.00 0.61 0.30 90 1003.8
20260509063204 14 179 1.6 3.2 0.00 0.61 0.30 91 1004.0
20260509062704 14 255 0.0 0.0 0.00 0.61 0.30 92 1004.1
20260509062204 13 315 0.0 1.6 0.00 0.61 0.30 91 1004.0
20260509061705 13 154 0.0 1.6 0.00 0.61 0.30 91 1003.9
20260509060705 13 30 0.0 1.6 0.00 0.61 0.30 90 1003.8
20260509060204 13 298 0.0 4.8 0.00 0.61 0.30 90 1003.7
20260509055704 14 269 1.6 4.8 0.00 0.61 0.30 89 1003.6
20260509055204 14 288 3.2 8.0 0.00 0.61 0.30 89 1003.6
20260509054704 14 292 4.8 9.7 0.00 0.61 0.30 88 1003.7
20260509054204 14 298 8.0 11.3 0.00 0.61 0.30 87 1003.8
20260509053704 15 296 6.4 9.7 0.00 0.61 0.30 86 1003.5
20260509052704 15 299 3.2 8.0 0.00 0.61 0.30 83 1003.5
20260509051704 16 265 6.4 11.3 0.00 0.61 0.30 82 1003.7
20260509050204 16 280 8.0 16.1 0.00 0.61 0.30 85 1003.9
20260509045704 16 294 3.2 8.0 0.00 0.61 0.30 84 1004.0
20260509045204 16 299 4.8 8.0 0.00 0.61 0.30 83 1004.0
20260509044704 16 311 4.8 9.7 0.00 0.61 0.30 83 1003.9
20260509044204 16 306 6.4 11.3 0.00 0.61 0.30 82 1004.3
20260509043704 16 285 8.0 12.9 0.00 0.61 0.30 82 1004.2
20260509042704 16 277 8.0 14.5 0.00 0.61 0.30 80 1004.1
20260509042205 16 270 6.4 11.3 0.00 0.61 0.30 79 1004.1
20260509041704 17 274 6.4 16.1 0.00 0.61 0.30 77 1004.2
20260509041205 17 281 9.7 19.3 0.00 0.61 0.30 74 1004.1
20260509040704 17 281 9.7 20.9 0.00 0.61 0.30 74 1004.1
20260509040204 17 277 14.5 25.7 0.00 0.61 0.30 74 1004.3
20260509035704 18 287 8.0 20.9 0.00 0.61 0.30 73 1004.2
20260509035204 18 279 14.5 27.4 0.00 0.61 0.30 70 1004.2
20260509034704 18 288 14.5 22.5 0.00 0.61 0.30 72 1004.0
20260509034204 18 283 16.1 24.1 0.00 0.61 0.30 71 1004.1
20260509033203 19 283 16.1 29.0 0.00 0.61 0.30 72 1004.1
20260509032704 19 283 12.9 22.5 0.00 0.61 0.30 77 1003.8
20260509032205 18 294 11.3 20.9 0.00 0.61 0.30 78 1003.7
20260509031704 18 300 11.3 22.5 0.00 0.61 0.30 80 1004.1
20260509030704 18 279 14.5 24.1 0.00 0.61 0.30 79 1004.3
20260509030204 18 286 14.5 20.9 0.00 0.61 0.30 78 1004.1
20260509025704 18 279 12.9 20.9 0.00 0.61 0.30 78 1004.1
20260509025205 18 287 11.3 19.3 0.00 0.61 0.30 77 1004.3
20260509024704 18 292 14.5 20.9 0.00 0.61 0.30 76 1004.3
20260509023704 19 293 17.7 25.7 0.00 0.61 0.30 74 1004.2
20260509023204 20 299 20.9 32.2 0.00 0.61 0.30 74 1004.1
20260509022704 20 297 16.1 25.7 0.00 0.61 0.30 73 1004.3
20260509022204 20 285 14.5 29.0 0.00 0.61 0.30 75 1004.2
20260509021703 20 292 14.5 22.5 0.00 0.61 0.30 75 1004.2
20260509021204 20 283 16.1 25.7 0.00 0.61 0.30 75 1004.3
20260509020704 19 292 12.9 29.0 0.00 0.61 0.30 75 1004.1
20260509015204 19 314 16.1 24.1 0.00 0.61 0.30 76 1004.4
20260509014203 19 296 14.5 24.1 0.00 0.61 0.30 78 1004.5
20260509013704 19 309 19.3 32.2 0.00 0.61 0.30 78 1004.5
20260509012705 19 321 11.3 33.8 0.00 0.61 0.30 78 1004.5
20260509012204 19 316 19.3 29.0 0.00 0.61 0.30 78 1004.4
20260509011204 19 278 16.1 27.4 0.00 0.61 0.30 77 1004.6
20260509010704 19 290 14.5 27.4 0.00 0.61 0.30 77 1004.8
20260509010204 19 290 17.7 24.1 0.00 0.61 0.30 78 1004.7
20260509005704 19 290 16.1 27.4 0.00 0.61 0.30 77 1004.8
20260509005204 18 303 17.7 25.7 0.00 0.61 0.30 78 1004.9
20260509004704 18 280 17.7 33.8 0.00 0.61 0.30 77 1005.2
20260509003704 18 282 16.1 25.7 0.03 0.61 0.30 78 1005.2
20260509003205 18 270 16.1 24.1 0.03 0.61 0.30 81 1005.4
20260509002704 18 263 14.5 22.5 0.03 0.61 0.30 81 1005.5
20260509002204 18 278 11.3 22.5 0.03 0.61 0.30 86 1005.4
20260509001704 17 277 16.1 24.1 0.03 0.61 0.30 88 1005.6
20260509001205 17 268 12.9 20.9 0.03 0.61 0.30 88 1005.9
20260509000703 17 273 8.0 14.5 0.03 0.61 0.30 88 1005.9
20260509000204 17 271 8.0 20.9 0.03 0.61 0.30 86 1005.9
20260508235704 17 254 11.3 27.4 0.00 0.61 0.30 84 1006.1
20260508235204 17 283 11.3 24.1 0.00 0.61 0.30 92 1006.4
20260508234705 16 288 14.5 24.1 0.00 0.61 0.30 89 1006.1